| time (UTC) | temp C | wind direction | speed KPH | gust KPH | rain 1hr cm | rain 24hr cm | rain mn cm | humidity % | barometer mb |
| 20260504021346 | 10 | 359 | 8.0 | 16.1 | 0.00 | 0.00 | 0.00 | 53 | 1018.5 |
| 20260504021154 | 10 | 356 | 8.0 | 16.1 | 0.00 | 0.00 | 0.00 | 53 | 1018.5 |
| 20260504020936 | 10 | 359 | 8.0 | 16.1 | 0.00 | 0.00 | 0.00 | 53 | 1018.5 |
| 20260504020738 | 10 | 339 | 8.0 | 16.1 | 0.00 | 0.00 | 0.00 | 53 | 1018.5 |
| 20260504020550 | 10 | 325 | 8.0 | 16.1 | 0.00 | 0.00 | 0.00 | 53 | 1018.5 |
| 20260504020339 | 10 | 329 | 8.0 | 12.9 | 0.00 | 0.00 | 0.00 | 53 | 1018.5 |
| 20260504020202 | 10 | 339 | 8.0 | 16.1 | 0.00 | 0.00 | 0.00 | 53 | 1018.5 |
| 20260504015910 | 10 | 347 | 8.0 | 16.1 | 0.00 | 0.00 | 0.00 | 53 | 1018.5 |
| 20260504015711 | 10 | 347 | 8.0 | 16.1 | 0.00 | 0.00 | 0.00 | 53 | 1018.5 |
| 20260504015516 | 10 | 344 | 9.7 | 19.3 | 0.00 | 0.00 | 0.00 | 52 | 1018.5 |
| 20260504015316 | 10 | 328 | 9.7 | 19.3 | 0.00 | 0.00 | 0.00 | 52 | 1018.5 |
| 20260504015117 | 10 | 339 | 9.7 | 19.3 | 0.00 | 0.00 | 0.00 | 52 | 1018.5 |
| 20260504014918 | 10 | 299 | 9.7 | 19.3 | 0.00 | 0.00 | 0.00 | 52 | 1018.5 |
| 20260504014715 | 10 | 332 | 9.7 | 19.3 | 0.00 | 0.00 | 0.00 | 52 | 1018.5 |
| 20260504014521 | 10 | 339 | 9.7 | 17.7 | 0.00 | 0.00 | 0.00 | 53 | 1018.5 |
| 20260504014312 | 10 | 309 | 8.0 | 14.5 | 0.00 | 0.00 | 0.00 | 53 | 1018.3 |
| 20260504014113 | 10 | 342 | 8.0 | 12.9 | 0.00 | 0.00 | 0.00 | 53 | 1018.3 |
| 20260504013909 | 10 | 347 | 8.0 | 16.1 | 0.00 | 0.00 | 0.00 | 52 | 1018.3 |
| 20260504013713 | 10 | 349 | 8.0 | 16.1 | 0.00 | 0.00 | 0.00 | 52 | 1018.3 |
| 20260504013518 | 10 | 304 | 9.7 | 17.7 | 0.00 | 0.00 | 0.00 | 52 | 1018.3 |
| 20260504013304 | 10 | 313 | 9.7 | 17.7 | 0.00 | 0.00 | 0.00 | 52 | 1018.3 |
| 20260504013109 | 10 | 316 | 9.7 | 17.7 | 0.00 | 0.00 | 0.00 | 52 | 1018.3 |
| 20260504012909 | 10 | 333 | 9.7 | 17.7 | 0.00 | 0.00 | 0.00 | 53 | 1018.4 |
| 20260504012704 | 10 | 335 | 9.7 | 17.7 | 0.00 | 0.00 | 0.00 | 54 | 1018.4 |
| 20260504012510 | 9 | 323 | 8.0 | 12.9 | 0.00 | 0.00 | 0.00 | 54 | 1018.4 |
| 20260504012306 | 9 | 357 | 8.0 | 12.9 | 0.00 | 0.00 | 0.00 | 54 | 1018.4 |
| 20260504012109 | 9 | 323 | 6.4 | 12.9 | 0.00 | 0.00 | 0.00 | 54 | 1018.4 |
| 20260504011859 | 9 | 326 | 6.4 | 12.9 | 0.00 | 0.00 | 0.00 | 54 | 1018.4 |
| 20260504011702 | 9 | 326 | 6.4 | 9.7 | 0.00 | 0.00 | 0.00 | 54 | 1018.4 |
| 20260504011527 | 9 | 298 | 6.4 | 9.7 | 0.00 | 0.00 | 0.00 | 54 | 1018.4 |
| 20260504011337 | 10 | 330 | 4.8 | 9.7 | 0.00 | 0.00 | 0.00 | 54 | 1018.5 |
| 20260504011208 | 10 | 320 | 6.4 | 11.3 | 0.00 | 0.00 | 0.00 | 53 | 1018.5 |
| 20260504010906 | 10 | 344 | 6.4 | 11.3 | 0.00 | 0.00 | 0.00 | 53 | 1018.5 |
| 20260504010707 | 10 | 308 | 6.4 | 11.3 | 0.00 | 0.00 | 0.00 | 53 | 1018.5 |
| 20260504010516 | 10 | 319 | 6.4 | 11.3 | 0.00 | 0.00 | 0.00 | 53 | 1018.5 |
| 20260504010301 | 10 | 311 | 6.4 | 11.3 | 0.00 | 0.00 | 0.00 | 54 | 1018.5 |
| 20260504010054 | 10 | 356 | 6.4 | 11.3 | 0.00 | 0.00 | 0.00 | 54 | 1018.5 |
| 20260504005854 | 10 | 322 | 6.4 | 11.3 | 0.00 | 0.00 | 0.00 | 54 | 1018.4 |
| 20260504005656 | 10 | 313 | 4.8 | 11.3 | 0.00 | 0.00 | 0.00 | 53 | 1018.4 |
| 20260504005313 | 10 | 309 | 4.8 | 9.7 | 0.00 | 0.00 | 0.00 | 52 | 1018.4 |
| 20260504005146 | 10 | 291 | 3.2 | 9.7 | 0.00 | 0.00 | 0.00 | 52 | 1018.4 |
| 20260504004849 | 10 | 312 | 3.2 | 9.7 | 0.00 | 0.00 | 0.00 | 51 | 1018.4 |
| 20260504004651 | 11 | 288 | 3.2 | 9.7 | 0.00 | 0.00 | 0.00 | 50 | 1018.4 |
| 20260504004250 | 11 | 320 | 4.8 | 12.9 | 0.00 | 0.00 | 0.00 | 49 | 1018.3 |
| 20260504004103 | 11 | 353 | 6.4 | 19.3 | 0.00 | 0.00 | 0.00 | 49 | 1018.3 |
| 20260504003850 | 11 | 357 | 8.0 | 19.3 | 0.00 | 0.00 | 0.00 | 49 | 1018.3 |
| 20260504003659 | 11 | 336 | 9.7 | 19.3 | 0.00 | 0.00 | 0.00 | 49 | 1018.3 |
| 20260504003508 | 11 | 359 | 9.7 | 19.3 | 0.00 | 0.00 | 0.00 | 49 | 1018.3 |
| 20260504003255 | 11 | 8 | 9.7 | 19.3 | 0.00 | 0.00 | 0.00 | 50 | 1018.3 |
| 20260504003051 | 11 | 306 | 8.0 | 17.7 | 0.00 | 0.00 | 0.00 | 51 | 1018.3 |
| 20260504002852 | 10 | 350 | 8.0 | 17.7 | 0.00 | 0.00 | 0.00 | 52 | 1018.2 |
| 20260504002650 | 10 | 359 | 6.4 | 17.7 | 0.00 | 0.00 | 0.00 | 52 | 1018.2 |
| 20260504002242 | 10 | 342 | 6.4 | 16.1 | 0.00 | 0.00 | 0.00 | 53 | 1018.2 |
| 20260504002045 | 10 | 357 | 6.4 | 16.1 | 0.00 | 0.00 | 0.00 | 53 | 1018.2 |
| 20260504001839 | 10 | 359 | 8.0 | 16.1 | 0.00 | 0.00 | 0.00 | 54 | 1018.2 |
| 20260504001639 | 10 | 302 | 8.0 | 16.1 | 0.00 | 0.00 | 0.00 | 54 | 1018.2 |
| 20260504001233 | 10 | 357 | 8.0 | 16.1 | 0.00 | 0.00 | 0.00 | 54 | 1018.1 |
| 20260504001047 | 10 | 359 | 8.0 | 16.1 | 0.00 | 0.00 | 0.00 | 54 | 1018.1 |
| 20260504000835 | 10 | 352 | 8.0 | 12.9 | 0.00 | 0.00 | 0.00 | 54 | 1018.1 |
| 20260504000635 | 10 | 357 | 8.0 | 11.3 | 0.00 | 0.00 | 0.00 | 54 | 1018.1 |
| 20260503235947 | 10 | 359 | 6.4 | 16.1 | 0.00 | 0.00 | 0.00 | 54 | 1018.1 |
| 20260503235746 | 10 | 359 | 6.4 | 16.1 | 0.00 | 0.00 | 0.00 | 55 | 1018.0 |
| 20260503235544 | 10 | 359 | 6.4 | 12.9 | 0.00 | 0.00 | 0.00 | 55 | 1018.0 |
| 20260503235349 | 10 | 278 | 6.4 | 12.9 | 0.00 | 0.00 | 0.00 | 55 | 1018.0 |
| 20260503235145 | 10 | 356 | 6.4 | 11.3 | 0.00 | 0.00 | 0.00 | 55 | 1018.0 |
| 20260503234944 | 10 | 356 | 6.4 | 11.3 | 0.00 | 0.00 | 0.00 | 56 | 1018.0 |
| 20260503234744 | 10 | 357 | 6.4 | 14.5 | 0.00 | 0.00 | 0.00 | 56 | 1018.0 |
| 20260503234543 | 10 | 357 | 8.0 | 14.5 | 0.00 | 0.00 | 0.00 | 56 | 1018.0 |
| 20260503234347 | 10 | 357 | 8.0 | 14.5 | 0.00 | 0.00 | 0.00 | 56 | 1018.0 |
| 20260503234150 | 10 | 357 | 8.0 | 14.5 | 0.00 | 0.00 | 0.00 | 56 | 1018.0 |
| 20260503233951 | 10 | 357 | 6.4 | 14.5 | 0.00 | 0.00 | 0.00 | 56 | 1018.0 |
| 20260503233759 | 10 | 357 | 8.0 | 12.9 | 0.00 | 0.00 | 0.00 | 57 | 1018.0 |
| 20260503233552 | 10 | 357 | 6.4 | 12.9 | 0.00 | 0.00 | 0.00 | 57 | 1018.0 |
| 20260503233348 | 10 | 356 | 6.4 | 12.9 | 0.00 | 0.00 | 0.00 | 57 | 1018.0 |
| 20260503233152 | 10 | 357 | 6.4 | 12.9 | 0.00 | 0.00 | 0.00 | 58 | 1018.0 |
| 20260503232947 | 10 | 357 | 6.4 | 12.9 | 0.00 | 0.00 | 0.00 | 58 | 1018.0 |
| 20260503232546 | 10 | 357 | 4.8 | 11.3 | 0.00 | 0.00 | 0.00 | 59 | 1018.0 |
| 20260503232345 | 10 | 357 | 6.4 | 11.3 | 0.00 | 0.00 | 0.00 | 60 | 1018.0 |
| 20260503232135 | 10 | 357 | 4.8 | 11.3 | 0.00 | 0.00 | 0.00 | 61 | 1018.0 |
| 20260503231933 | 10 | 357 | 4.8 | 11.3 | 0.00 | 0.00 | 0.00 | 62 | 1018.0 |
| 20260503231735 | 10 | 357 | 4.8 | 11.3 | 0.00 | 0.00 | 0.00 | 62 | 1018.0 |
| 20260503231534 | 10 | 357 | 6.4 | 11.3 | 0.00 | 0.00 | 0.00 | 62 | 1018.0 |
| 20260503231333 | 10 | 359 | 6.4 | 12.9 | 0.00 | 0.00 | 0.00 | 63 | 1018.0 |
| 20260503231131 | 10 | 357 | 6.4 | 12.9 | 0.00 | 0.00 | 0.00 | 63 | 1018.0 |
| 20260503230927 | 10 | 359 | 8.0 | 12.9 | 0.00 | 0.00 | 0.00 | 64 | 1018.0 |
| 20260503230726 | 10 | 357 | 6.4 | 12.9 | 0.00 | 0.00 | 0.00 | 64 | 1018.0 |
| 20260503230517 | 9 | 357 | 6.4 | 12.9 | 0.00 | 0.00 | 0.00 | 64 | 1018.0 |
| 20260503230321 | 9 | 359 | 6.4 | 12.9 | 0.00 | 0.00 | 0.00 | 64 | 1018.0 |
| 20260503230118 | 9 | 357 | 6.4 | 12.9 | 0.00 | 0.00 | 0.00 | 64 | 1018.0 |
| 20260503225913 | 10 | 357 | 4.8 | 11.3 | 0.00 | 0.00 | 0.00 | 64 | 1018.0 |
| 20260503225705 | 10 | 357 | 4.8 | 11.3 | 0.00 | 0.00 | 0.00 | 64 | 1017.9 |
| 20260503225506 | 10 | 357 | 4.8 | 9.7 | 0.00 | 0.00 | 0.00 | 63 | 1017.9 |
| 20260503225317 | 10 | 357 | 4.8 | 9.7 | 0.00 | 0.00 | 0.00 | 63 | 1017.9 |
| 20260503225106 | 10 | 359 | 4.8 | 9.7 | 0.00 | 0.00 | 0.00 | 62 | 1017.9 |
| 20260503224904 | 10 | 357 | 4.8 | 12.9 | 0.00 | 0.00 | 0.00 | 62 | 1017.9 |
| 20260503224659 | 10 | 357 | 6.4 | 12.9 | 0.00 | 0.00 | 0.00 | 61 | 1017.9 |
| 20260503224459 | 10 | 357 | 4.8 | 12.9 | 0.00 | 0.00 | 0.00 | 60 | 1017.9 |
| 20260503224300 | 10 | 357 | 4.8 | 12.9 | 0.00 | 0.00 | 0.00 | 60 | 1017.7 |
| 20260503224051 | 10 | 357 | 4.8 | 12.9 | 0.00 | 0.00 | 0.00 | 60 | 1017.7 |
| 20260503223851 | 10 | 356 | 3.2 | 11.3 | 0.00 | 0.00 | 0.00 | 60 | 1017.7 |
| 20260503223649 | 11 | 357 | 3.2 | 9.7 | 0.00 | 0.00 | 0.00 | 60 | 1017.7 |
| 20260503223451 | 11 | 357 | 3.2 | 9.7 | 0.00 | 0.00 | 0.00 | 60 | 1017.7 |
| 20260503223049 | 11 | 357 | 3.2 | 9.7 | 0.00 | 0.00 | 0.00 | 60 | 1017.7 |
| 20260503222926 | 11 | 356 | 3.2 | 9.7 | 0.00 | 0.00 | 0.00 | 60 | 1017.7 |
| 20260503222637 | 11 | 356 | 3.2 | 9.7 | 0.00 | 0.00 | 0.00 | 59 | 1017.7 |
| 20260503222436 | 11 | 356 | 3.2 | 9.7 | 0.00 | 0.00 | 0.00 | 59 | 1017.7 |
| 20260503222034 | 11 | 357 | 3.2 | 9.7 | 0.00 | 0.00 | 0.00 | 59 | 1017.7 |
| 20260503221843 | 11 | 356 | 3.2 | 9.7 | 0.00 | 0.00 | 0.00 | 60 | 1017.7 |
| 20260503221647 | 11 | 357 | 3.2 | 9.7 | 0.00 | 0.00 | 0.00 | 60 | 1017.7 |
| 20260503221517 | 11 | 357 | 3.2 | 9.7 | 0.00 | 0.00 | 0.00 | 60 | 1017.7 |
| 20260503221351 | 11 | 357 | 3.2 | 9.7 | 0.00 | 0.00 | 0.00 | 60 | 1017.8 |
| 20260503221037 | 11 | 359 | 3.2 | 8.0 | 0.00 | 0.00 | 0.00 | 60 | 1017.8 |
| 20260503220837 | 11 | 357 | 1.6 | 8.0 | 0.00 | 0.00 | 0.00 | 60 | 1017.8 |
| 20260503220635 | 11 | 357 | 1.6 | 8.0 | 0.00 | 0.00 | 0.00 | 60 | 1017.8 |
| 20260503220428 | 11 | 356 | 1.6 | 8.0 | 0.00 | 0.00 | 0.00 | 60 | 1017.8 |
| 20260503220241 | 11 | 356 | 1.6 | 8.0 | 0.00 | 0.00 | 0.00 | 61 | 1017.8 |
| 20260503220048 | 11 | 356 | 1.6 | 8.0 | 0.00 | 0.00 | 0.00 | 61 | 1017.8 |
| 20260503215907 | 11 | 357 | 1.6 | 8.0 | 0.00 | 0.00 | 0.00 | 62 | 1017.8 |
| 20260503215606 | 11 | 356 | 1.6 | 8.0 | 0.00 | 0.00 | 0.00 | 64 | 1017.8 |
| 20260503215404 | 11 | 357 | 1.6 | 4.8 | 0.00 | 0.00 | 0.00 | 64 | 1017.8 |
| 20260503215202 | 11 | 356 | 0.0 | 4.8 | 0.00 | 0.00 | 0.00 | 66 | 1017.8 |
| 20260503214958 | 11 | 357 | 0.0 | 4.8 | 0.00 | 0.00 | 0.00 | 67 | 1017.8 |
| 20260503214754 | 11 | 357 | 1.6 | 8.0 | 0.00 | 0.00 | 0.00 | 69 | 1017.8 |
| 20260503214538 | 11 | 357 | 1.6 | 8.0 | 0.00 | 0.00 | 0.00 | 70 | 1017.8 |
| 20260503214347 | 11 | 357 | 1.6 | 8.0 | 0.00 | 0.00 | 0.00 | 71 | 1017.7 |
| 20260503214124 | 11 | 357 | 3.2 | 8.0 | 0.00 | 0.00 | 0.00 | 72 | 1017.7 |
| 20260503213926 | 11 | 357 | 3.2 | 8.0 | 0.00 | 0.00 | 0.00 | 72 | 1017.7 |
| 20260503213716 | 11 | 357 | 3.2 | 8.0 | 0.00 | 0.00 | 0.00 | 72 | 1017.7 |
| 20260503213507 | 11 | 356 | 3.2 | 8.0 | 0.00 | 0.00 | 0.00 | 73 | 1017.7 |
| 20260503213309 | 11 | 356 | 1.6 | 8.0 | 0.00 | 0.00 | 0.00 | 73 | 1017.7 |
| 20260503213110 | 11 | 356 | 1.6 | 8.0 | 0.00 | 0.00 | 0.00 | 73 | 1017.7 |
| 20260503212917 | 11 | 356 | 1.6 | 6.4 | 0.00 | 0.00 | 0.00 | 74 | 1017.8 |
| 20260503212731 | 11 | 357 | 0.0 | 4.8 | 0.00 | 0.00 | 0.00 | 74 | 1017.8 |
| 20260503212513 | 11 | 357 | 0.0 | 3.2 | 0.00 | 0.00 | 0.00 | 75 | 1017.8 |
| 20260503212325 | 11 | 357 | 0.0 | 3.2 | 0.00 | 0.00 | 0.00 | 75 | 1017.8 |
| 20260503212110 | 11 | 357 | 0.0 | 1.6 | 0.00 | 0.00 | 0.00 | 75 | 1017.8 |
| 20260503211910 | 11 | 357 | 0.0 | 1.6 | 0.00 | 0.00 | 0.00 | 75 | 1017.8 |
| 20260503211505 | 12 | 357 | 0.0 | 1.6 | 0.00 | 0.00 | 0.00 | 76 | 1017.8 |
| 20260503211302 | 12 | 357 | 0.0 | 1.6 | 0.00 | 0.00 | 0.00 | 76 | 1017.6 |
| 20260503211101 | 12 | 357 | 0.0 | 4.8 | 0.00 | 0.00 | 0.00 | 76 | 1017.6 |
| 20260503210913 | 12 | 357 | 1.6 | 9.7 | 0.00 | 0.00 | 0.00 | 76 | 1017.6 |
| 20260503210502 | 12 | 357 | 3.2 | 9.7 | 0.00 | 0.00 | 0.00 | 76 | 1017.7 |
| 20260503210312 | 13 | 353 | 3.2 | 9.7 | 0.00 | 0.00 | 0.00 | 76 | 1017.7 |
| 20260503210124 | 13 | 329 | 3.2 | 9.7 | 0.00 | 0.00 | 0.00 | 76 | 1017.7 |
| 20260503205934 | 13 | 356 | 3.2 | 9.7 | 0.00 | 0.00 | 0.00 | 77 | 1017.5 |
| 20260503205645 | 13 | 357 | 3.2 | 12.9 | 0.00 | 0.00 | 0.00 | 77 | 1017.5 |
| 20260503205502 | 13 | 359 | 1.6 | 12.9 | 0.00 | 0.00 | 0.00 | 77 | 1017.5 |
| 20260503205327 | 13 | 342 | 1.6 | 12.9 | 0.00 | 0.00 | 0.00 | 77 | 1017.5 |
| 20260503205033 | 13 | 128 | 1.6 | 12.9 | 0.00 | 0.00 | 0.00 | 77 | 1017.5 |
| 20260503204855 | 13 | 48 | 0.0 | 9.7 | 0.00 | 0.00 | 0.00 | 76 | 1017.5 |
| 20260503204725 | 13 | 6 | 0.0 | 4.8 | 0.00 | 0.00 | 0.00 | 76 | 1017.5 |
| 20260503204412 | 13 | 72 | 0.0 | 3.2 | 0.00 | 0.00 | 0.00 | 76 | 1017.5 |
| 20260503204217 | 13 | 299 | 0.0 | 3.2 | 0.00 | 0.00 | 0.00 | 75 | 1017.5 |
| 20260503204029 | 13 | 291 | 0.0 | 4.8 | 0.00 | 0.00 | 0.00 | 75 | 1017.5 |
| 20260503203856 | 13 | 56 | 0.0 | 8.0 | 0.00 | 0.00 | 0.00 | 75 | 1017.5 |
| 20260503203608 | 13 | 305 | 0.0 | 8.0 | 0.00 | 0.00 | 0.00 | 75 | 1017.5 |
| 20260503203405 | 13 | 76 | 1.6 | 8.0 | 0.00 | 0.00 | 0.00 | 74 | 1017.5 |
| 20260503203209 | 13 | 54 | 1.6 | 9.7 | 0.00 | 0.00 | 0.00 | 73 | 1017.5 |
| 20260503203007 | 13 | 359 | 1.6 | 9.7 | 0.00 | 0.00 | 0.00 | 73 | 1017.5 |
| 20260503202805 | 13 | 328 | 1.6 | 16.1 | 0.00 | 0.00 | 0.00 | 73 | 1017.4 |
| 20260503202404 | 13 | 121 | 3.2 | 16.1 | 0.00 | 0.00 | 0.00 | 72 | 1017.4 |
| 20260503202216 | 13 | 164 | 3.2 | 16.1 | 0.00 | 0.00 | 0.00 | 72 | 1017.4 |
| 20260503202006 | 14 | 213 | 3.2 | 16.1 | 0.00 | 0.00 | 0.00 | 72 | 1017.4 |
| 20260503201825 | 14 | 202 | 3.2 | 12.9 | 0.00 | 0.00 | 0.00 | 71 | 1017.4 |
| 20260503201640 | 14 | 229 | 4.8 | 12.9 | 0.00 | 0.00 | 0.00 | 71 | 1017.4 |
| 20260503201505 | 14 | 136 | 4.8 | 12.9 | 0.00 | 0.00 | 0.00 | 71 | 1017.4 |
| 20260503201218 | 14 | 226 | 6.4 | 17.7 | 0.00 | 0.00 | 0.00 | 70 | 1017.4 |
| 20260503201031 | 14 | 226 | 6.4 | 17.7 | 0.00 | 0.00 | 0.00 | 70 | 1017.4 |
| 20260503200901 | 14 | 168 | 4.8 | 17.7 | 0.00 | 0.00 | 0.00 | 69 | 1017.4 |
| 20260503200712 | 14 | 206 | 3.2 | 17.7 | 0.00 | 0.00 | 0.00 | 68 | 1017.4 |
| 20260503200355 | 14 | 175 | 1.6 | 17.7 | 0.00 | 0.00 | 0.00 | 68 | 1017.4 |
| 20260503200207 | 14 | 136 | 1.6 | 17.7 | 0.00 | 0.00 | 0.00 | 66 | 1017.4 |
| 20260503195956 | 14 | 148 | 0.0 | 11.3 | 0.00 | 0.00 | 0.00 | 65 | 1017.4 |
| 20260503195753 | 14 | 206 | 0.0 | 4.8 | 0.00 | 0.00 | 0.00 | 63 | 1017.3 |
| 20260503195421 | 13 | 247 | 1.6 | 8.0 | 0.00 | 0.00 | 0.00 | 61 | 1017.3 |
| 20260503195255 | 13 | 209 | 1.6 | 8.0 | 0.00 | 0.00 | 0.00 | 59 | 1017.3 |
| 20260503194951 | 13 | 137 | 1.6 | 8.0 | 0.00 | 0.00 | 0.00 | 58 | 1017.3 |
| 20260503194754 | 13 | 64 | 1.6 | 8.0 | 0.00 | 0.00 | 0.00 | 58 | 1017.3 |
| 20260503194548 | 13 | 121 | 1.6 | 8.0 | 0.00 | 0.00 | 0.00 | 57 | 1017.3 |
| 20260503194342 | 13 | 133 | 1.6 | 8.0 | 0.00 | 0.00 | 0.00 | 53 | 1017.0 |
| 20260503194145 | 12 | 171 | 1.6 | 8.0 | 0.00 | 0.00 | 0.00 | 52 | 1017.0 |
| 20260503193941 | 12 | 73 | 3.2 | 8.0 | 0.00 | 0.00 | 0.00 | 47 | 1016.9 |
| 20260503193735 | 12 | 219 | 3.2 | 8.0 | 0.00 | 0.00 | 0.00 | 46 | 1016.9 |
| 20260503193536 | 12 | 344 | 3.2 | 8.0 | 0.00 | 0.00 | 0.00 | 46 | 1016.9 |
| 20260503193336 | 12 | 343 | 3.2 | 8.0 | 0.00 | 0.00 | 0.00 | 46 | 1016.9 |
| 20260503193138 | 12 | 316 | 3.2 | 8.0 | 0.00 | 0.00 | 0.00 | 46 | 1016.9 |
| 20260503192938 | 12 | 333 | 3.2 | 8.0 | 0.00 | 0.00 | 0.00 | 46 | 1016.9 |
| 20260503192745 | 12 | 337 | 3.2 | 6.4 | 0.00 | 0.00 | 0.00 | 46 | 1016.9 |
| 20260503192544 | 12 | 353 | 3.2 | 8.0 | 0.00 | 0.00 | 0.00 | 46 | 1016.9 |
| 20260503192344 | 12 | 344 | 3.2 | 8.0 | 0.00 | 0.00 | 0.00 | 46 | 1016.9 |
| 20260503192144 | 12 | 330 | 3.2 | 11.3 | 0.00 | 0.00 | 0.00 | 46 | 1016.9 |
| 20260503191940 | 12 | 340 | 4.8 | 11.3 | 0.00 | 0.00 | 0.00 | 46 | 1016.9 |
| 20260503191737 | 12 | 343 | 4.8 | 11.3 | 0.00 | 0.00 | 0.00 | 46 | 1016.9 |
| 20260503191537 | 12 | 340 | 4.8 | 11.3 | 0.00 | 0.00 | 0.00 | 46 | 1016.9 |
| 20260503191330 | 12 | 342 | 4.8 | 11.3 | 0.00 | 0.00 | 0.00 | 46 | 1016.9 |
| 20260503191141 | 12 | 335 | 4.8 | 9.7 | 0.00 | 0.00 | 0.00 | 46 | 1016.9 |
| 20260503190944 | 12 | 330 | 3.2 | 9.7 | 0.00 | 0.00 | 0.00 | 47 | 1016.9 |
| 20260503190744 | 12 | 342 | 3.2 | 9.7 | 0.00 | 0.00 | 0.00 | 47 | 1016.9 |
| 20260503190542 | 12 | 326 | 1.6 | 8.0 | 0.00 | 0.00 | 0.00 | 47 | 1016.9 |
| 20260503190357 | 12 | 336 | 1.6 | 6.4 | 0.00 | 0.00 | 0.00 | 48 | 1016.8 |
| 20260503190222 | 12 | 344 | 1.6 | 4.8 | 0.00 | 0.00 | 0.00 | 48 | 1016.8 |
| 20260503185926 | 12 | 329 | 1.6 | 4.8 | 0.00 | 0.00 | 0.00 | 48 | 1016.8 |
| 20260503185736 | 12 | 333 | 1.6 | 4.8 | 0.00 | 0.00 | 0.00 | 49 | 1016.6 |
| 20260503185546 | 12 | 325 | 1.6 | 8.0 | 0.00 | 0.00 | 0.00 | 49 | 1016.6 |
| 20260503185408 | 12 | 325 | 1.6 | 8.0 | 0.00 | 0.00 | 0.00 | 50 | 1016.7 |
| 20260503185238 | 12 | 333 | 1.6 | 8.0 | 0.00 | 0.00 | 0.00 | 50 | 1016.7 |
| 20260503184945 | 12 | 332 | 1.6 | 8.0 | 0.00 | 0.00 | 0.00 | 50 | 1016.7 |
| 20260503184815 | 12 | 328 | 3.2 | 8.0 | 0.00 | 0.00 | 0.00 | 50 | 1016.7 |
| 20260503184534 | 12 | 319 | 3.2 | 4.8 | 0.00 | 0.00 | 0.00 | 51 | 1016.7 |
| 20260503184332 | 12 | 323 | 1.6 | 4.8 | 0.00 | 0.00 | 0.00 | 51 | 1016.5 |
| 20260503184140 | 12 | 318 | 1.6 | 4.8 | 0.00 | 0.00 | 0.00 | 51 | 1016.5 |
| 20260503183936 | 12 | 322 | 1.6 | 4.8 | 0.00 | 0.00 | 0.00 | 50 | 1016.5 |
| 20260503183731 | 12 | 330 | 1.6 | 8.0 | 0.00 | 0.00 | 0.00 | 50 | 1016.5 |
| 20260503183531 | 12 | 323 | 1.6 | 8.0 | 0.00 | 0.00 | 0.00 | 50 | 1016.5 |
| 20260503183328 | 12 | 313 | 1.6 | 8.0 | 0.00 | 0.00 | 0.00 | 50 | 1016.5 |
| 20260503183135 | 13 | 322 | 1.6 | 8.0 | 0.00 | 0.00 | 0.00 | 50 | 1016.5 |
| 20260503182930 | 13 | 320 | 1.6 | 8.0 | 0.00 | 0.00 | 0.00 | 49 | 1016.5 |
| 20260503182731 | 13 | 328 | 1.6 | 8.0 | 0.00 | 0.00 | 0.00 | 49 | 1016.5 |
| 20260503182528 | 13 | 326 | 1.6 | 8.0 | 0.00 | 0.00 | 0.00 | 49 | 1016.5 |
| 20260503182327 | 13 | 319 | 1.6 | 8.0 | 0.00 | 0.00 | 0.00 | 49 | 1016.5 |
| 20260503182142 | 13 | 315 | 1.6 | 8.0 | 0.00 | 0.00 | 0.00 | 49 | 1016.5 |
| 20260503181921 | 13 | 332 | 1.6 | 8.0 | 0.00 | 0.00 | 0.00 | 49 | 1016.5 |
| 20260503181721 | 13 | 346 | 1.6 | 4.8 | 0.00 | 0.00 | 0.00 | 49 | 1016.5 |
| 20260503181522 | 13 | 349 | 1.6 | 4.8 | 0.00 | 0.00 | 0.00 | 50 | 1016.5 |
| 20260503181338 | 13 | 357 | 1.6 | 4.8 | 0.00 | 0.00 | 0.00 | 50 | 1016.3 |
| 20260503181208 | 13 | 357 | 1.6 | 6.4 | 0.00 | 0.00 | 0.00 | 50 | 1016.3 |
| 20260503180854 | 13 | 357 | 1.6 | 6.4 | 0.00 | 0.00 | 0.00 | 49 | 1016.3 |
| 20260503180652 | 13 | 359 | 1.6 | 6.4 | 0.00 | 0.00 | 0.00 | 49 | 1016.3 |
| 20260503180450 | 13 | 357 | 1.6 | 6.4 | 0.00 | 0.00 | 0.00 | 49 | 1016.3 |
| 20260503180241 | 13 | 359 | 1.6 | 6.4 | 0.00 | 0.00 | 0.00 | 48 | 1016.3 |
| 20260503175845 | 13 | 357 | 0.0 | 4.8 | 0.00 | 0.00 | 0.00 | 47 | 1016.1 |
| 20260503175636 | 13 | 277 | 0.0 | 4.8 | 0.00 | 0.00 | 0.00 | 46 | 1016.1 |
| 20260503175431 | 13 | 301 | 0.0 | 3.2 | 0.00 | 0.00 | 0.00 | 46 | 1016.1 |
| 20260503175230 | 13 | 287 | 0.0 | 3.2 | 0.00 | 0.00 | 0.00 | 46 | 1016.1 |
| 20260503175030 | 13 | 296 | 0.0 | 3.2 | 0.00 | 0.00 | 0.00 | 46 | 1016.1 |
| 20260503174815 | 13 | 295 | 1.6 | 3.2 | 0.00 | 0.00 | 0.00 | 46 | 1016.1 |
| 20260503174617 | 13 | 325 | 1.6 | 4.8 | 0.00 | 0.00 | 0.00 | 47 | 1016.1 |
| 20260503174213 | 14 | 295 | 1.6 | 4.8 | 0.00 | 0.00 | 0.00 | 46 | 1016.0 |
| 20260503173950 | 14 | 296 | 1.6 | 6.4 | 0.00 | 0.00 | 0.00 | 46 | 1016.0 |
| 20260503173757 | 14 | 289 | 1.6 | 6.4 | 0.00 | 0.00 | 0.00 | 46 | 1016.0 |
| 20260503173601 | 14 | 291 | 1.6 | 6.4 | 0.00 | 0.00 | 0.00 | 46 | 1016.0 |
| 20260503173354 | 14 | 278 | 1.6 | 6.4 | 0.00 | 0.00 | 0.00 | 46 | 1016.0 |
| 20260503173146 | 14 | 337 | 1.6 | 6.4 | 0.00 | 0.00 | 0.00 | 46 | 1016.0 |
| 20260503172944 | 15 | 278 | 1.6 | 8.0 | 0.00 | 0.00 | 0.00 | 46 | 1016.0 |
| 20260503172749 | 15 | 270 | 1.6 | 8.0 | 0.00 | 0.00 | 0.00 | 45 | 1015.9 |
| 20260503172346 | 15 | 287 | 1.6 | 8.0 | 0.00 | 0.00 | 0.00 | 44 | 1015.9 |
| 20260503172148 | 15 | 287 | 1.6 | 8.0 | 0.00 | 0.00 | 0.00 | 45 | 1015.9 |
| 20260503171942 | 15 | 281 | 1.6 | 3.2 | 0.00 | 0.00 | 0.00 | 44 | 1015.9 |
| 20260503171740 | 15 | 304 | 1.6 | 9.7 | 0.00 | 0.00 | 0.00 | 44 | 1015.9 |
| 20260503171334 | 15 | 285 | 1.6 | 9.7 | 0.00 | 0.00 | 0.00 | 43 | 1015.8 |
| 20260503171132 | 15 | 294 | 1.6 | 9.7 | 0.00 | 0.00 | 0.00 | 43 | 1015.8 |
| 20260503170904 | 15 | 287 | 1.6 | 6.4 | 0.00 | 0.00 | 0.00 | 43 | 1015.8 |
| 20260503170720 | 16 | 282 | 1.6 | 4.8 | 0.00 | 0.00 | 0.00 | 42 | 1015.8 |
| 20260503170516 | 16 | 352 | 1.6 | 6.4 | 0.00 | 0.00 | 0.00 | 42 | 1015.8 |
| 20260503170317 | 16 | 359 | 1.6 | 6.4 | 0.00 | 0.00 | 0.00 | 42 | 1015.8 |
| 20260503170124 | 16 | 344 | 1.6 | 6.4 | 0.00 | 0.00 | 0.00 | 41 | 1015.8 |
| 20260503160131 | 17 | 311 | 3.2 | 12.9 | 0.00 | 0.00 | 0.00 | 34 | 1015.5 |
| 20260503150938 | 17 | 100 | 1.6 | 4.8 | 0.00 | 0.00 | 0.00 | 35 | 1015.9 |
| 20260503150716 | 17 | 103 | 1.6 | 4.8 | 0.00 | 0.00 | 0.00 | 35 | 1015.9 |
| 20260503150526 | 17 | 104 | 1.6 | 4.8 | 0.00 | 0.00 | 0.00 | 34 | 1015.9 |
| 20260503150328 | 17 | 113 | 1.6 | 4.8 | 0.00 | 0.00 | 0.00 | 33 | 1015.9 |
| 20260503131250 | 16 | 107 | 3.2 | 9.7 | 0.00 | 0.00 | 0.00 | 40 | 1016.7 |
| 20260503131106 | 16 | 104 | 3.2 | 9.7 | 0.00 | 0.00 | 0.00 | 39 | 1016.7 |
| 20260503130929 | 16 | 92 | 3.2 | 9.7 | 0.00 | 0.00 | 0.00 | 39 | 1016.7 |
| 20260503130808 | 16 | 110 | 3.2 | 9.7 | 0.00 | 0.00 | 0.00 | 38 | 1016.7 |
| 20260503130520 | 16 | 119 | 3.2 | 6.4 | 0.00 | 0.00 | 0.00 | 37 | 1016.7 |
| 20260503130330 | 16 | 120 | 1.6 | 4.8 | 0.00 | 0.00 | 0.00 | 36 | 1016.8 |
| 20260503120112 | 17 | 106 | 0.0 | 4.8 | 0.00 | 0.00 | 0.00 | 40 | 1017.4 |
| 20260503110635 | 15 | 184 | 1.6 | 4.8 | 0.00 | 0.00 | 0.00 | 45 | 1017.9 |
| 20260503110443 | 15 | 196 | 1.6 | 4.8 | 0.00 | 0.00 | 0.00 | 44 | 1017.9 |
| 20260503110307 | 15 | 198 | 1.6 | 8.0 | 0.00 | 0.00 | 0.00 | 45 | 1017.9 |
| 20260503110145 | 15 | 154 | 1.6 | 8.0 | 0.00 | 0.00 | 0.00 | 45 | 1017.9 |
| 20260503100147 | 13 | 45 | 3.2 | 9.7 | 0.00 | 0.00 | 0.00 | 50 | 1018.6 |
| 20260503090455 | 13 | 1 | 4.8 | 11.3 | 0.00 | 0.00 | 0.00 | 55 | 1019.0 |
| 20260503090240 | 13 | 330 | 6.4 | 11.3 | 0.00 | 0.00 | 0.00 | 55 | 1019.0 |
| 20260503081636 | 12 | 11 | 6.4 | 11.3 | 0.00 | 0.00 | 0.00 | 61 | 1019.0 |
| 20260503081321 | 12 | 0 | 6.4 | 11.3 | 0.00 | 0.00 | 0.00 | 62 | 1019.0 |
| 20260503081124 | 12 | 34 | 6.4 | 12.9 | 0.00 | 0.00 | 0.00 | 63 | 1019.0 |
| 20260503080844 | 12 | 11 | 6.4 | 14.5 | 0.00 | 0.00 | 0.00 | 64 | 1019.0 |
| 20260503080701 | 12 | 8 | 6.4 | 14.5 | 0.00 | 0.00 | 0.00 | 64 | 1019.0 |
| 20260503080151 | 11 | 28 | 6.4 | 14.5 | 0.00 | 0.00 | 0.00 | 65 | 1019.0 |
| 20260503072849 | 10 | 357 | 9.7 | 22.5 | 0.00 | 0.00 | 0.00 | 73 | 1019.1 |
| 20260503072726 | 10 | 357 | 9.7 | 22.5 | 0.00 | 0.00 | 0.00 | 73 | 1019.1 |
| 20260503072436 | 10 | 356 | 9.7 | 22.5 | 0.00 | 0.00 | 0.00 | 74 | 1019.1 |
| 20260503072257 | 10 | 352 | 9.7 | 22.5 | 0.00 | 0.00 | 0.00 | 75 | 1019.1 |
| 20260503072124 | 10 | 359 | 8.0 | 17.7 | 0.00 | 0.00 | 0.00 | 75 | 1019.1 |
| 20260503071820 | 10 | 356 | 8.0 | 20.9 | 0.00 | 0.00 | 0.00 | 76 | 1019.1 |
| 20260503071655 | 10 | 356 | 8.0 | 20.9 | 0.00 | 0.00 | 0.00 | 76 | 1019.1 |
| 20260503071426 | 10 | 236 | 8.0 | 20.9 | 0.00 | 0.00 | 0.00 | 77 | 1019.0 |
| 20260503071249 | 10 | 256 | 8.0 | 20.9 | 0.00 | 0.00 | 0.00 | 78 | 1019.0 |
| 20260503071043 | 10 | 278 | 8.0 | 20.9 | 0.00 | 0.00 | 0.00 | 78 | 1019.0 |
| 20260503070805 | 10 | 352 | 6.4 | 17.7 | 0.00 | 0.00 | 0.00 | 79 | 1019.0 |
| 20260503070509 | 10 | 272 | 4.8 | 16.1 | 0.00 | 0.00 | 0.00 | 80 | 1019.0 |
| 20260503070303 | 9 | 354 | 4.8 | 16.1 | 0.00 | 0.00 | 0.00 | 80 | 1019.0 |
| 20260503070115 | 9 | 246 | 3.2 | 19.3 | 0.00 | 0.00 | 0.00 | 80 | 1019.0 |
| 20260503060226 | 10 | 272 | 3.2 | 11.3 | 0.00 | 0.00 | 0.00 | 93 | 1018.4 |
| 20260503055028 | 9 | 359 | 1.6 | 8.0 | 0.00 | 0.00 | 0.00 | 94 | 1018.2 |
| 20260503054826 | 9 | 298 | 1.6 | 8.0 | 0.00 | 0.00 | 0.00 | 94 | 1018.2 |
| 20260503054625 | 10 | 301 | 1.6 | 6.4 | 0.00 | 0.00 | 0.00 | 94 | 1018.2 |
| 20260503054427 | 10 | 357 | 1.6 | 6.4 | 0.00 | 0.00 | 0.00 | 95 | 1018.2 |
| 20260503054212 | 9 | 298 | 1.6 | 6.4 | 0.00 | 0.00 | 0.00 | 95 | 1018.0 |
| 20260503054032 | 9 | 294 | 1.6 | 8.0 | 0.00 | 0.00 | 0.00 | 95 | 1018.0 |
| 20260503053830 | 9 | 357 | 1.6 | 8.0 | 0.00 | 0.00 | 0.00 | 95 | 1018.0 |
| 20260503053648 | 9 | 295 | 1.6 | 8.0 | 0.00 | 0.00 | 0.00 | 95 | 1018.0 |
| 20260503053423 | 9 | 356 | 1.6 | 8.0 | 0.00 | 0.00 | 0.00 | 95 | 1018.0 |
| 20260503053243 | 9 | 356 | 1.6 | 8.0 | 0.00 | 0.00 | 0.00 | 95 | 1018.0 |
| 20260503053109 | 9 | 356 | 1.6 | 8.0 | 0.00 | 0.00 | 0.00 | 96 | 1018.0 |
| 20260503052830 | 9 | 354 | 1.6 | 8.0 | 0.00 | 0.00 | 0.00 | 95 | 1017.8 |
| 20260503052604 | 9 | 354 | 1.6 | 8.0 | 0.00 | 0.00 | 0.00 | 95 | 1017.8 |
| 20260503052426 | 9 | 354 | 1.6 | 8.0 | 0.00 | 0.00 | 0.00 | 95 | 1017.8 |
| 20260503052155 | 9 | 353 | 0.0 | 6.4 | 0.00 | 0.00 | 0.00 | 95 | 1017.8 |
| 20260503051955 | 9 | 354 | 0.0 | 3.2 | 0.00 | 0.00 | 0.00 | 96 | 1017.8 |
| 20260503051747 | 9 | 354 | 0.0 | 3.2 | 0.00 | 0.00 | 0.00 | 96 | 1017.8 |
| 20260503051540 | 9 | 354 | 0.0 | 0.0 | 0.00 | 0.00 | 0.00 | 96 | 1017.8 |
| 20260503051347 | 9 | 354 | 0.0 | 0.0 | 0.00 | 0.00 | 0.00 | 96 | 1017.7 |
| 20260503051203 | 9 | 354 | 0.0 | 0.0 | 0.00 | 0.00 | 0.00 | 96 | 1017.7 |
| 20260503051028 | 9 | 354 | 0.0 | 0.0 | 0.00 | 0.00 | 0.00 | 96 | 1017.7 |
| 20260503050728 | 9 | 354 | 0.0 | 0.0 | 0.00 | 0.00 | 0.00 | 95 | 1017.7 |
| 20260503050518 | 8 | 356 | 0.0 | 0.0 | 0.00 | 0.00 | 0.00 | 95 | 1017.7 |
| 20260503050118 | 8 | 353 | 0.0 | 0.0 | 0.00 | 0.00 | 0.00 | 95 | 1017.7 |
| 20260503045904 | 8 | 353 | 0.0 | 0.0 | 0.00 | 0.00 | 0.00 | 95 | 1017.6 |
| 20260503045717 | 8 | 353 | 0.0 | 0.0 | 0.00 | 0.00 | 0.00 | 95 | 1017.6 |
| 20260503045521 | 8 | 353 | 0.0 | 3.2 | 0.00 | 0.00 | 0.00 | 95 | 1017.6 |
| 20260503045108 | 8 | 352 | 1.6 | 4.8 | 0.00 | 0.00 | 0.00 | 95 | 1017.6 |
| 20260503044905 | 8 | 350 | 1.6 | 9.7 | 0.00 | 0.00 | 0.00 | 95 | 1017.6 |
| 20260503044658 | 8 | 354 | 1.6 | 9.7 | 0.00 | 0.00 | 0.00 | 95 | 1017.5 |
| 20260503044443 | 8 | 354 | 3.2 | 9.7 | 0.00 | 0.00 | 0.00 | 95 | 1017.5 |
| 20260503044239 | 8 | 354 | 3.2 | 9.7 | 0.00 | 0.00 | 0.00 | 95 | 1017.4 |
| 20260503044101 | 8 | 354 | 3.2 | 9.7 | 0.00 | 0.00 | 0.00 | 95 | 1017.4 |
| 20260503043915 | 8 | 353 | 3.2 | 9.7 | 0.00 | 0.00 | 0.00 | 94 | 1017.4 |
| 20260503043457 | 8 | 356 | 3.2 | 11.3 | 0.00 | 0.00 | 0.00 | 94 | 1017.4 |
| 20260503043238 | 8 | 347 | 4.8 | 11.3 | 0.00 | 0.00 | 0.00 | 94 | 1017.4 |
| 20260503043041 | 8 | 224 | 4.8 | 11.3 | 0.00 | 0.00 | 0.00 | 94 | 1017.4 |
| 20260503042844 | 8 | 353 | 4.8 | 11.3 | 0.00 | 0.00 | 0.00 | 94 | 1017.4 |
| 20260503042700 | 8 | 354 | 4.8 | 11.3 | 0.00 | 0.00 | 0.00 | 94 | 1017.4 |
| 20260503042507 | 8 | 353 | 4.8 | 11.3 | 0.00 | 0.00 | 0.00 | 94 | 1017.4 |
| 20260503042226 | 8 | 353 | 4.8 | 11.3 | 0.00 | 0.00 | 0.00 | 94 | 1017.4 |
| 20260503042030 | 8 | 352 | 4.8 | 9.7 | 0.00 | 0.00 | 0.00 | 94 | 1017.4 |
| 20260503041818 | 8 | 354 | 6.4 | 9.7 | 0.00 | 0.00 | 0.00 | 94 | 1017.4 |
| 20260503041615 | 8 | 357 | 4.8 | 9.7 | 0.00 | 0.00 | 0.00 | 94 | 1017.4 |
| 20260503041417 | 8 | 356 | 6.4 | 9.7 | 0.00 | 0.00 | 0.00 | 94 | 1017.4 |
| 20260503041217 | 8 | 353 | 6.4 | 11.3 | 0.00 | 0.00 | 0.00 | 94 | 1017.2 |
| 20260503041017 | 8 | 349 | 4.8 | 11.3 | 0.00 | 0.00 | 0.00 | 94 | 1017.2 |
| 20260503040816 | 8 | 347 | 4.8 | 11.3 | 0.00 | 0.00 | 0.00 | 94 | 1017.2 |
| 20260503040606 | 8 | 350 | 4.8 | 11.3 | 0.00 | 0.00 | 0.00 | 94 | 1017.2 |
| 20260503040402 | 8 | 219 | 4.8 | 11.3 | 0.00 | 0.00 | 0.00 | 94 | 1017.2 |
| 20260503040202 | 8 | 233 | 3.2 | 9.7 | 0.00 | 0.00 | 0.00 | 94 | 1017.2 |
| 20260503040001 | 8 | 359 | 4.8 | 9.7 | 0.00 | 0.00 | 0.00 | 94 | 1017.2 |
| 20260503035758 | 8 | 359 | 4.8 | 11.3 | 0.00 | 0.00 | 0.00 | 94 | 1017.1 |
| 20260503035603 | 8 | 209 | 4.8 | 11.3 | 0.00 | 0.00 | 0.00 | 94 | 1017.1 |
| 20260503035400 | 8 | 352 | 6.4 | 11.3 | 0.00 | 0.00 | 0.00 | 94 | 1017.1 |
| 20260503035227 | 8 | 357 | 6.4 | 12.9 | 0.00 | 0.00 | 0.00 | 94 | 1017.1 |
| 20260503035046 | 8 | 222 | 6.4 | 12.9 | 0.00 | 0.00 | 0.00 | 94 | 1017.1 |
| 20260503034914 | 8 | 356 | 6.4 | 12.9 | 0.00 | 0.00 | 0.00 | 94 | 1017.1 |
| 20260503034555 | 8 | 357 | 6.4 | 12.9 | 0.00 | 0.00 | 0.00 | 94 | 1017.1 |
| 20260503034357 | 8 | 359 | 6.4 | 12.9 | 0.00 | 0.00 | 0.00 | 94 | 1017.0 |
| 20260503034156 | 8 | 236 | 6.4 | 12.9 | 0.00 | 0.00 | 0.00 | 94 | 1017.0 |
| 20260503034008 | 8 | 352 | 6.4 | 12.9 | 0.00 | 0.00 | 0.00 | 94 | 1017.0 |
| 20260503033840 | 8 | 354 | 6.4 | 12.9 | 0.00 | 0.00 | 0.00 | 93 | 1017.0 |
| 20260503033707 | 8 | 352 | 6.4 | 12.9 | 0.00 | 0.00 | 0.00 | 93 | 1017.0 |
| 20260503033527 | 8 | 357 | 4.8 | 12.9 | 0.00 | 0.00 | 0.00 | 93 | 1017.0 |
| 20260503033353 | 8 | 357 | 4.8 | 12.9 | 0.00 | 0.00 | 0.00 | 93 | 1017.0 |
| 20260503033216 | 8 | 357 | 4.8 | 12.9 | 0.00 | 0.00 | 0.00 | 93 | 1017.0 |
| 20260503033053 | 8 | 243 | 4.8 | 12.9 | 0.00 | 0.00 | 0.00 | 93 | 1016.8 |
| 20260503032903 | 8 | 359 | 4.8 | 11.3 | 0.00 | 0.00 | 0.00 | 93 | 1016.8 |
| 20260503032718 | 8 | 357 | 4.8 | 11.3 | 0.00 | 0.00 | 0.00 | 93 | 1016.8 |
| 20260503032328 | 8 | 357 | 4.8 | 11.3 | 0.00 | 0.00 | 0.00 | 93 | 1016.8 |
| 20260503032117 | 9 | 357 | 3.2 | 11.3 | 0.00 | 0.00 | 0.00 | 93 | 1016.8 |
| 20260503031846 | 9 | 240 | 3.2 | 11.3 | 0.00 | 0.00 | 0.00 | 93 | 1016.8 |
| 20260503031605 | 9 | 347 | 3.2 | 9.7 | 0.00 | 0.00 | 0.00 | 92 | 1016.8 |
| 20260503031357 | 9 | 356 | 3.2 | 9.7 | 0.00 | 0.00 | 0.00 | 92 | 1016.6 |
| 20260503031158 | 9 | 356 | 1.6 | 9.7 | 0.00 | 0.00 | 0.00 | 92 | 1016.6 |
| 20260503031005 | 9 | 359 | 1.6 | 9.7 | 0.00 | 0.00 | 0.00 | 92 | 1016.6 |
| 20260503030821 | 9 | 357 | 1.6 | 9.7 | 0.00 | 0.00 | 0.00 | 92 | 1016.6 |
| 20260503030518 | 9 | 359 | 1.6 | 9.7 | 0.00 | 0.00 | 0.00 | 92 | 1016.6 |
| 20260503030311 | 9 | 357 | 0.0 | 4.8 | 0.00 | 0.00 | 0.00 | 92 | 1016.6 |
| 20260503030105 | 9 | 232 | 1.6 | 8.0 | 0.00 | 0.00 | 0.00 | 92 | 1016.6 |
| 20260503025912 | 9 | 359 | 1.6 | 8.0 | 0.00 | 0.00 | 0.00 | 92 | 1016.8 |
| 20260503025455 | 9 | 354 | 4.8 | 12.9 | 0.00 | 0.00 | 0.00 | 91 | 1016.8 |
| 20260503025310 | 9 | 354 | 4.8 | 12.9 | 0.00 | 0.00 | 0.00 | 91 | 1016.8 |
| 20260503025120 | 9 | 241 | 4.8 | 12.9 | 0.00 | 0.00 | 0.00 | 91 | 1016.8 |
| 20260503024912 | 9 | 234 | 4.8 | 12.9 | 0.00 | 0.00 | 0.00 | 91 | 1016.8 |
| 20260503024706 | 9 | 356 | 4.8 | 12.9 | 0.00 | 0.00 | 0.00 | 91 | 1016.8 |
| 20260503024504 | 9 | 260 | 6.4 | 12.9 | 0.00 | 0.00 | 0.00 | 91 | 1016.8 |
| 20260503024316 | 9 | 257 | 6.4 | 12.9 | 0.00 | 0.00 | 0.00 | 91 | 1016.8 |
| 20260503024118 | 9 | 248 | 6.4 | 12.9 | 0.00 | 0.00 | 0.00 | 91 | 1016.8 |
| 20260503023909 | 9 | 356 | 6.4 | 12.9 | 0.00 | 0.00 | 0.00 | 91 | 1016.8 |
| 20260503023653 | 9 | 244 | 8.0 | 12.9 | 0.00 | 0.00 | 0.00 | 91 | 1016.8 |
| 20260503023449 | 9 | 354 | 6.4 | 12.9 | 0.00 | 0.00 | 0.00 | 91 | 1016.8 |
| 20260503023251 | 9 | 0 | 6.4 | 12.9 | 0.00 | 0.00 | 0.00 | 91 | 1016.8 |
| 20260503023050 | 9 | 354 | 4.8 | 12.9 | 0.00 | 0.00 | 0.00 | 91 | 1016.8 |
| 20260503022841 | 9 | 354 | 3.2 | 12.9 | 0.00 | 0.00 | 0.00 | 91 | 1016.5 |
| 20260503022642 | 9 | 247 | 1.6 | 9.7 | 0.00 | 0.00 | 0.00 | 91 | 1016.5 |
| 20260503022459 | 9 | 357 | 1.6 | 8.0 | 0.00 | 0.00 | 0.00 | 91 | 1016.5 |
| 20260503022315 | 9 | 357 | 0.0 | 1.6 | 0.00 | 0.00 | 0.00 | 91 | 1016.5 |
| 20260503022026 | 9 | 347 | 0.0 | 1.6 | 0.00 | 0.00 | 0.00 | 91 | 1016.5 |
| 20260503021803 | 9 | 347 | 0.0 | 1.6 | 0.00 | 0.00 | 0.00 | 91 | 1016.5 |
| 20260503021554 | 9 | 346 | 0.0 | 1.6 | 0.00 | 0.00 | 0.00 | 91 | 1016.5 |